TimeCDT,TemperatureF,Dew PointF,Humidity,Sea Level PressureIn,VisibilityMPH,Wind Direction,Wind SpeedMPH,Gust SpeedMPH,PrecipitationIn,Events,Conditions,WindDirDegrees,DateUTC
12:15 AM,44.2,30.0,57,30.05,10.0,SW,6.9,-,N/A,,Clear,230,2013-04-05 05:15:00
12:35 AM,43.2,30.0,60,30.05,10.0,SW,6.9,-,N/A,,Clear,230,2013-04-05 05:35:00
12:55 AM,43.9,29.7,57,30.05,10.0,WSW,6.9,-,N/A,,Clear,240,2013-04-05 05:55:00
1:15 AM,43.7,30.0,59,30.06,10.0,WSW,6.9,-,N/A,,Clear,240,2013-04-05 06:15:00
1:35 AM,45.1,29.3,54,30.06,10.0,WSW,6.9,-,N/A,,Clear,250,2013-04-05 06:35:00
1:55 AM,40.5,29.7,65,30.07,10.0,West,8.1,-,N/A,,Clear,280,2013-04-05 06:55:00
2:15 AM,40.1,29.1,65,30.07,10.0,West,8.1,-,N/A,,Clear,280,2013-04-05 07:15:00
2:35 AM,41.4,28.9,61,30.07,10.0,West,6.9,-,N/A,,Clear,280,2013-04-05 07:35:00
2:55 AM,39.4,29.3,67,30.07,10.0,WNW,5.8,-,N/A,,Clear,300,2013-04-05 07:55:00
3:15 AM,38.8,29.5,69,30.08,10.0,NW,8.1,-,N/A,,Clear,320,2013-04-05 08:15:00
3:35 AM,40.1,30.0,67,30.08,10.0,NNW,6.9,-,N/A,,Clear,330,2013-04-05 08:35:00
3:55 AM,41.2,30.7,66,30.09,10.0,NNW,6.9,-,N/A,,Clear,330,2013-04-05 08:55:00
4:15 AM,40.3,31.6,71,30.10,10.0,NNW,5.8,-,N/A,,Clear,340,2013-04-05 09:15:00
4:35 AM,41.0,32.0,70,30.10,10.0,NNW,5.8,-,N/A,,Clear,340,2013-04-05 09:35:00
4:55 AM,40.6,32.0,71,30.11,10.0,NNW,4.6,-,N/A,,Clear,340,2013-04-05 09:55:00
5:15 AM,41.2,32.9,72,30.11,10.0,NNW,4.6,-,N/A,,Clear,330,2013-04-05 10:15:00
5:35 AM,41.4,33.3,73,30.12,10.0,NNW,3.5,-,N/A,,Clear,330,2013-04-05 10:35:00
5:55 AM,40.1,32.5,74,30.13,10.0,NNW,5.8,-,N/A,,Clear,330,2013-04-05 10:55:00
6:15 AM,38.3,32.0,78,30.13,10.0,NNW,5.8,-,N/A,,Clear,330,2013-04-05 11:15:00
6:35 AM,35.8,31.5,84,30.14,10.0,NNW,8.1,-,N/A,,Clear,330,2013-04-05 11:35:00
6:55 AM,38.3,32.4,79,30.15,10.0,NNW,6.9,-,N/A,,Clear,340,2013-04-05 11:55:00
7:15 AM,38.7,33.1,80,30.15,7.0,North,8.1,-,N/A,,Clear,350,2013-04-05 12:15:00
7:35 AM,40.6,34.7,79,30.15,7.0,North,8.1,-,N/A,,Clear,350,2013-04-05 12:35:00
7:55 AM,43.0,35.2,74,30.16,10.0,North,9.2,-,N/A,,Clear,360,2013-04-05 12:55:00
8:15 AM,44.6,35.2,70,30.17,10.0,North,9.2,-,N/A,,Clear,360,2013-04-05 13:15:00
8:35 AM,46.0,35.1,66,30.17,10.0,North,9.2,-,N/A,,Clear,10,2013-04-05 13:35:00
8:55 AM,47.7,34.5,60,30.17,10.0,NNE,9.2,-,N/A,,Clear,30,2013-04-05 13:55:00
9:15 AM,49.1,34.3,57,30.18,10.0,NE,9.2,-,N/A,,Clear,40,2013-04-05 14:15:00
9:35 AM,49.8,34.2,55,30.18,10.0,NNE,9.2,-,N/A,,Clear,20,2013-04-05 14:35:00
9:55 AM,50.7,33.6,52,30.19,10.0,NE,5.8,-,N/A,,Clear,40,2013-04-05 14:55:00
10:15 AM,51.6,34.0,51,30.20,10.0,North,8.1,-,N/A,,Clear,10,2013-04-05 15:15:00
10:35 AM,53.2,33.8,48,30.20,10.0,North,8.1,-,N/A,,Clear,10,2013-04-05 15:35:00
10:55 AM,54.7,33.3,44,30.19,10.0,NE,5.8,-,N/A,,Clear,40,2013-04-05 15:55:00
11:15 AM,55.6,33.4,43,30.19,10.0,ENE,6.9,-,N/A,,Clear,60,2013-04-05 16:15:00
11:35 AM,55.6,32.4,41,30.19,10.0,ENE,10.4,-,N/A,,Clear,60,2013-04-05 16:35:00
11:55 AM,55.9,31.5,39,30.19,10.0,Calm,Calm,-,N/A,,Clear,0,2013-04-05 16:55:00
12:15 PM,57.0,30.7,37,30.18,10.0,NNE,6.9,-,N/A,,Clear,20,2013-04-05 17:15:00
12:35 PM,58.1,30.4,35,30.18,10.0,ENE,8.1,-,N/A,,Clear,60,2013-04-05 17:35:00
12:55 PM,58.5,30.4,34,30.17,10.0,East,4.6,-,N/A,,Clear,90,2013-04-05 17:55:00
1:15 PM,59.0,29.3,32,30.16,10.0,Calm,Calm,-,N/A,,Clear,0,2013-04-05 18:15:00
1:35 PM,59.5,29.1,32,30.15,10.0,ENE,3.5,-,N/A,,Clear,60,2013-04-05 18:35:00
1:55 PM,60.6,29.5,31,30.15,10.0,ESE,3.5,-,N/A,,Clear,110,2013-04-05 18:55:00
2:15 PM,60.4,28.4,30,30.14,10.0,Calm,Calm,-,N/A,,Clear,0,2013-04-05 19:15:00
2:35 PM,62.1,29.1,29,30.13,10.0,North,4.6,-,N/A,,Clear,10,2013-04-05 19:35:00
2:55 PM,61.9,27.9,28,30.12,10.0,Calm,Calm,-,N/A,,Clear,0,2013-04-05 19:55:00
3:15 PM,62.6,29.5,29,30.11,10.0,Calm,Calm,-,N/A,,Clear,0,2013-04-05 20:15:00
3:35 PM,62.4,29.3,29,30.11,10.0,NNW,5.8,-,N/A,,Clear,330,2013-04-05 20:35:00
3:55 PM,62.8,29.5,29,30.10,10.0,NNW,3.5,-,N/A,,Clear,340,2013-04-05 20:55:00
4:15 PM,62.8,28.6,27,30.10,10.0,Calm,Calm,-,N/A,,Clear,0,2013-04-05 21:15:00
4:35 PM,63.5,29.5,28,30.09,10.0,NNE,3.5,-,N/A,,Clear,30,2013-04-05 21:35:00
4:55 PM,63.0,29.1,28,30.09,10.0,Calm,Calm,-,N/A,,Clear,0,2013-04-05 21:55:00
5:15 PM,63.0,28.6,27,30.09,10.0,Calm,Calm,-,N/A,,Clear,0,2013-04-05 22:15:00
5:35 PM,63.1,28.8,27,30.09,10.0,Calm,Calm,-,N/A,,Clear,0,2013-04-05 22:35:00
5:55 PM,63.5,29.3,28,30.09,10.0,Calm,Calm,-,N/A,,Clear,0,2013-04-05 22:55:00
6:15 PM,63.1,29.7,28,30.09,10.0,Calm,Calm,-,N/A,,Clear,0,2013-04-05 23:15:00
6:35 PM,62.6,30.4,30,30.08,10.0,Calm,Calm,-,N/A,,Clear,0,2013-04-05 23:35:00
6:55 PM,61.5,29.5,30,30.08,10.0,Calm,Calm,-,N/A,,Clear,0,2013-04-05 23:55:00
7:15 PM,60.8,29.8,31,30.08,10.0,Calm,Calm,-,N/A,,Clear,0,2013-04-06 00:15:00
7:35 PM,59.5,29.8,32,30.08,10.0,ESE,4.6,-,N/A,,Clear,120,2013-04-06 00:35:00
7:55 PM,54.7,31.8,42,30.07,10.0,East,4.6,-,N/A,,Clear,80,2013-04-06 00:55:00
8:15 PM,53.2,31.5,43,30.08,10.0,East,5.8,-,N/A,,Clear,100,2013-04-06 01:15:00
8:35 PM,51.8,32.5,48,30.08,10.0,ESE,8.1,-,N/A,,Clear,120,2013-04-06 01:35:00
8:55 PM,53.6,33.1,46,30.08,10.0,ESE,6.9,-,N/A,,Clear,120,2013-04-06 01:55:00
9:15 PM,52.9,34.7,50,30.07,10.0,ESE,10.4,-,N/A,,Clear,110,2013-04-06 02:15:00
9:35 PM,54.0,34.9,49,30.07,10.0,ESE,10.4,-,N/A,,Clear,110,2013-04-06 02:35:00
9:55 PM,55.0,34.0,45,30.06,10.0,ESE,9.2,-,N/A,,Clear,120,2013-04-06 02:55:00
10:15 PM,54.1,33.8,46,30.06,10.0,ESE,9.2,-,N/A,,Clear,110,2013-04-06 03:15:00
10:35 PM,52.3,34.0,50,30.05,10.0,ESE,5.8,-,N/A,,Clear,120,2013-04-06 03:35:00
10:55 PM,52.3,33.6,49,30.05,10.0,ESE,10.4,-,N/A,,Clear,120,2013-04-06 03:55:00
11:15 PM,51.4,35.1,54,30.05,10.0,ESE,8.1,-,N/A,,Clear,110,2013-04-06 04:15:00
11:35 PM,51.8,35.1,53,30.05,10.0,ESE,9.2,-,N/A,,Clear,120,2013-04-06 04:35:00
11:55 PM,52.5,34.2,50,30.05,10.0,ESE,10.4,-,N/A,,Clear,120,2013-04-06 04:55:00